Temperature
14 14 14 13 13 13 13 13 13 13 12 12 12 12 12 12 11 11 11 11 11 11 11 11 11 11 11 11 11 11 11 11 11 11 11 11 11 11 11 11 10 10 10
14 13 13 13 13 13 13 13 12 12 12 12 12 12 11 11 11 11 11 11 11 11 11 11 11 11 11 11 11 11 11 11 10 10 10 10 10 10 10 10 10 10 10
13 13 13 13 13 12 12 12 12 12 12 11 11 11 11 11 11 11 10 10 10 10 10 10 10 10 10 10 10 10 10 10 10 10 10 10 10 10 10 10 10 10 10
12 12 12 12 12 12 12 12 12 11 11 11 11 11 11 10 10 10 10 10 10 10 10 10 10 10 10 10 10 10 10 10 10 10 9 9 9 9 9 9 9 9 9
12 12 12 12 12 11 11 11 11 11 11 11 11 11 10 10 10 10 10 10 10 10 10 10 10 10 10 9 9 10 10 9 9 9 9 9 9 9 9 9 9 9 9
12 12 11 11 11 11 11 11 11 11 10 10 10 10 10 10 9 9 9 9 9 9 9 9 9 9 9 9 9 9 9 9 9 9 9 9 9 9 9 9 8 8 8
11 11 11 11 11 11 10 10 10 10 10 10 10 9 9 9 9 9 9 9 9 9 9 9 9 9 9 9 9 9 9 9 9 9 9 9 9 8 8 8 8 8 8
11 11 11 10 10 10 10 10 10 10 9 9 9 9 9 9 8 8 8 8 8 8 8 8 8 8 8 8 8 8 8 8 8 8 8 8 8 8 8 8 8 8 8
10 10 10 10 10 9 9 9 9 9 9 9 9 8 8 8 8 8 8 8 8 8 8 8 8 8 8 8 8 8 8 8 8 8 8 8 8 8 8 8 8 8 8
10 9 9 9 9 9 9 9 9 8 8 8 8 8 8 8 7 7 7 7 7 7 7 7 7 7 7 7 7 7 7 8 8 8 8 8 8 8 8 7 7 7 7
9 9 9 9 8 8 8 8 8 8 8 8 8 8 7 7 7 7 7 7 6 7 7 7 7 7 7 7 7 7 7 7 7 7 7 7 7 7 7 7 7 7 7
8 8 8 8 8 8 8 8 8 7 7 7 7 7 7 7 7 7 6 6 6 6 6 6 6 6 6 6 6 6 7 7 7 7 7 7 7 7 7 7 7 7 7
8 8 7 7 7 7 7 7 7 7 7 7 6 6 6 6 6 6 6 6 6 5 5 5 5 6 6 6 6 6 6 6 6 6 6 6 6 6 6 6 6 6 6
7 7 7 7 7 7 7 6 6 6 6 6 6 6 6 6 6 6 6 5 5 5 5 5 5 5 5 5 6 6 6 6 6 6 6 6 6 6 6 6 6 5 6
6 6 6 6 6 6 6 6 6 6 5 5 5 5 5 5 5 5 5 5 5 5 5 4 5 5 5 5 5 5 5 5 5 5 5 5 5 5 5 5 5 5 5
6 6 5 5 5 5 5 5 5 5 5 5 5 5 5 4 4 4 4 4 4 4 4 4 4 4 4 4 5 5 5 5 5 5 5 5 5 5 5 5 5 4 4
5 5 5 5 5 4 4 4 4 5 5 4 4 4 4 4 4 4 4 4 4 4 4 4 4 4 4 4 4 4 4 4 4 4 4 4 4 4 4 4 4 4 4
5 5 4 4 4 4 4 4 4 4 4 4 4 4 4 4 4 4 3 4 4 4 4 4 4 4 4 4 4 4 4 4 4 4 4 4 4 4 4 4 4 4 4
4 4 4 4 4 3 3 3 3 3 3 3 3 3 3 3 3 3 3 3 3 3 3 3 3 3 3 3 3 3 3 3 3 3 4 4 4 3 3 3 3 3 3
4 4 4 3 3 3 3 3 3 3 3 3 3 3 3 3 3 3 3 3 3 3 3 3 3 3 3 3 3 3 3 3 3 3 3 3 3 3 3 3 3 3 3
4 3 3 3 3 3 3 2 2 2 2 2 2 2 2 2 2 2 2 2 2 2 2 2 2 2 2 2 3 3 3 3 3 3 3 3 3 3 3 3 3 3 3
3 3 3 3 3 2 2 2 2 2 2 2 2 2 2 2 2 2 2 2 2 2 2 2 2 2 2 2 2 2 2 2 2 2 2 3 3 3 3 3 3 2 2
3 3 2 2 2 2 2 2 2 1 1 1 1 1 1 1 1 1 1 1 1 1 1 1 1 2 2 2 2 2 2 2 2 2 2 2 2 2 2 2 2 2 2
2 2 2 2 2 2 1 1 1 1 1 1 1 1 1 1 1 1 1 1 1 1 1 1 1 1 1 1 1 1 1 2 2 2 2 2 2 2 2 2 2 2 2
2 2 2 2 1 1 1 1 1 1 1 1 1 1 1 1 1 1 1 1 1 1 1 1 1 1 1 1 1 1 1 1 1 1 1 1 1 1 1 1 1 1 1
1 1 1 1 1 1 1 1 0 0 0 0 0 0 1 1 0 0 1 1 0 0 0 0 0 0 1 1 1 1 1 1 1 1 1 1 1 1 1 1 1 1 1
Wind_Speed
2 2 1 1 1 1 1 1 2 2 1 2 2 2 2 2 2 1 1 1 2 2 2 2 3 3 2 2 1 1 2 3 4 3 2 1 1 1 1 2 3 3 3
2 2 2 1 1 1 0 1 1 1 2 1 1 1 2 2 2 2 3 2 2 3 3 3 4 3 3 2 2 2 2 3 4 3 2 1 2 2 2 1 2 3 3
1 1 1 1 1 1 2 1 1 1 1 1 1 1 2 2 2 3 3 3 3 4 4 4 4 3 3 3 3 3 3 2 2 3 2 1 1 1 0 1 1 1 2
1 1 1 2 2 2 2 1 1 1 1 1 1 2 2 2 2 2 2 3 3 3 3 4 4 4 5 4 3 4 3 2 2 2 2 1 1 1 1 1 1 1 2
1 1 2 2 1 1 1 1 1 1 1 1 1 1 2 2 2 2 2 2 3 3 4 4 4 5 5 4 4 4 4 3 3 2 2 1 1 1 2 2 2 2 2
1 0 1 1 0 1 1 1 1 1 1 1 1 2 2 3 4 4 2 2 3 3 4 4 4 4 5 5 5 4 5 5 5 4 3 3 4 3 2 2 2 1 2
1 1 1 1 1 1 1 1 1 2 1 2 3 2 3 4 6 5 4 2 3 3 4 4 4 4 4 3 4 4 5 6 6 6 6 6 5 5 4 3 3 3 4
1 1 2 1 1 1 1 1 2 2 2 2 3 3 3 5 6 6 5 3 3 3 4 4 4 5 4 3 3 3 4 4 4 4 5 5 5 5 6 6 5 3 2
1 1 1 1 1 1 1 2 3 2 2 3 3 3 3 5 6 5 5 2 2 4 4 4 4 4 5 4 3 4 4 4 3 4 4 4 4 4 4 2 2 2 2
1 1 1 1 1 1 2 2 2 2 3 3 3 3 4 4 5 5 4 2 2 3 3 4 4 4 4 4 3 3 4 4 3 2 2 3 2 2 3 4 5 4 2
1 1 1 1 1 1 1 2 2 2 2 3 3 3 4 4 5 5 5 2 3 3 3 4 4 6 6 5 4 4 5 4 3 3 2 2 1 1 1 2 3 4 4
1 1 2 2 2 2 1 2 2 2 2 3 3 4 4 4 4 5 5 4 3 3 4 4 4 6 6 6 5 5 5 3 1 2 2 2 2 3 2 1 2 2 3
1 1 2 3 3 2 2 2 2 2 2 3 3 3 4 4 4 6 6 5 4 3 3 4 5 6 6 4 4 5 3 2 2 2 3 3 3 3 2 1 0 0 0
1 2 2 2 3 3 2 2 2 2 3 3 3 3 3 3 3 3 3 3 4 4 3 3 4 4 3 3 3 3 2 3 3 3 3 3 2 2 2 2 1 1 1
1 2 2 2 2 3 3 3 3 3 4 3 3 3 3 4 5 6 3 3 3 3 2 1 1 2 2 2 2 2 2 2 3 2 2 2 2 2 2 1 1 1 1
1 1 2 2 2 2 3 4 5 4 6 5 4 4 4 5 7 6 5 5 5 4 1 1 2 3 3 3 3 3 2 3 3 3 3 3 3 2 2 1 2 2 2
1 1 1 2 2 2 3 3 4 5 6 6 6 6 5 6 5 4 4 4 4 2 1 2 3 3 4 4 3 3 3 3 3 3 3 3 3 3 2 2 2 2 2
1 2 2 2 2 2 3 3 3 3 4 4 5 7 6 6 5 4 4 2 2 2 2 2 3 3 3 3 3 3 3 3 2 3 3 3 3 3 3 3 3 3 3
2 2 2 2 2 2 2 3 3 3 3 3 3 5 6 5 4 4 2 1 2 2 3 3 3 3 3 3 3 3 3 3 3 3 3 3 3 3 3 3 3 3 3
2 3 2 1 2 2 2 2 2 3 3 3 3 4 4 3 2 3 2 2 2 2 3 3 3 4 3 3 3 3 3 3 3 3 3 3 3 3 4 4 4 4 4
2 2 3 2 2 2 2 2 2 2 3 3 3 4 4 3 3 3 3 3 3 3 3 3 3 3 3 3 3 3 3 3 3 3 3 3 3 3 4 4 4 4 4
1 1 2 2 2 2 2 2 2 2 3 3 3 4 5 3 3 3 3 4 3 3 3 3 3 3 3 3 3 3 3 3 3 3 3 3 3 3 3 4 4 4 4
1 1 1 2 2 2 2 2 2 3 3 3 3 3 3 3 3 3 3 3 3 3 3 2 3 3 3 3 3 3 3 3 3 3 3 2 2 3 3 3 4 4 4
1 1 1 2 2 2 2 2 3 3 3 3 3 3 3 3 3 3 3 3 3 3 2 2 3 4 4 3 3 3 4 4 4 4 4 3 3 3 3 3 3 4 4
1 1 1 2 2 2 2 2 2 3 3 3 3 3 3 3 3 3 3 3 3 3 4 3 3 3 4 5 4 4 5 5 4 3 4 3 3 3 3 3 3 3 3
1 1 1 1 1 2 2 2 3 3 3 3 3 3 3 3 3 3 3 3 3 3 4 3 4 4 5 5 5 6 5 5 5 5 4 3 3 3 3 3 3 3 3
Wind_Direction
178 181 156 162 171 156 173 230 220 204 201 215 234 228 242 249 249 230 259 256 245 266 269 251 259 260 251 256 237 211 199 186 210 258 249 233 188 225 233 206 215 214 218
190 176 183 179 142 119 242 268 248 211 209 213 220 236 253 253 243 233 252 261 251 254 261 256 260 259 257 253 232 214 210 201 192 220 248 231 220 227 219 211 223 219 222
168 158 160 156 186 223 242 261 263 214 218 213 197 228 252 261 253 245 244 254 255 254 250 242 248 242 248 247 237 223 216 212 191 189 225 223 237 244 244 273 274 230 235
137 157 180 213 221 235 244 247 249 236 212 237 236 234 245 257 257 262 260 261 269 275 270 253 247 234 236 234 235 228 213 203 192 187 209 218 232 251 168 202 280 259 254
123 161 212 229 226 236 251 257 254 248 247 233 251 270 273 262 264 279 269 268 273 283 287 275 258 247 244 235 231 220 207 207 201 198 215 221 231 215 224 216 229 249 264
108 188 219 217 235 249 251 248 263 277 285 270 253 266 280 285 301 293 280 262 273 275 279 282 280 267 262 254 243 226 209 209 208 205 215 218 229 225 223 215 219 217 257
78 310 271 222 236 254 270 287 274 270 271 271 259 257 273 287 308 303 288 279 267 268 271 275 280 284 280 257 257 250 238 232 219 205 211 221 222 222 208 211 213 212 232
30 327 310 269 245 273 277 272 265 255 252 258 266 262 269 283 302 307 301 280 272 273 268 261 262 270 267 262 249 252 252 253 239 222 217 226 225 217 205 207 210 214 255
357 324 329 324 268 269 267 267 263 257 260 261 267 260 267 281 289 297 304 268 274 280 279 277 272 261 267 264 249 247 258 267 252 238 241 247 249 236 204 178 183 183 247
283 284 296 325 288 261 267 275 274 259 257 264 276 271 263 274 287 291 291 250 264 283 292 291 285 278 280 277 249 241 247 258 261 262 260 267 268 260 222 192 195 197 216
287 322 340 333 299 274 273 284 289 280 278 273 278 284 279 280 297 298 284 256 247 268 279 285 280 285 282 274 262 242 244 252 248 231 237 249 268 268 250 194 183 192 204
346 351 329 318 315 335 314 295 288 283 284 282 288 295 292 293 298 297 290 275 265 258 263 268 272 286 286 280 270 258 260 262 236 232 234 244 245 247 250 217 181 186 207
12 335 315 320 325 321 300 289 292 283 274 277 276 284 293 297 298 303 298 291 285 275 262 269 283 286 289 284 266 267 265 240 225 227 239 243 239 237 240 254 350 109 325
355 315 313 317 319 319 311 292 276 267 262 266 267 276 286 293 294 297 297 294 292 285 273 277 292 295 284 268 283 284 253 230 224 222 233 241 234 219 222 214 200 207 254
320 305 310 308 306 309 309 300 284 262 263 267 258 254 265 275 278 285 291 283 277 270 280 300 311 300 284 281 282 274 263 248 235 223 223 229 230 222 225 213 187 175 200
333 307 297 298 300 307 309 320 322 308 309 301 298 291 277 280 289 289 290 293 294 285 298 260 261 254 248 246 250 259 254 245 234 223 220 215 216 215 222 216 188 189 207
239 276 286 296 300 304 304 303 313 327 331 325 315 306 302 307 305 295 292 294 297 295 289 261 259 255 252 246 241 244 248 245 239 231 224 219 218 214 210 214 206 204 214
252 277 293 273 280 289 295 296 293 298 313 323 329 324 316 313 310 304 293 314 317 304 289 272 267 266 266 252 241 244 247 244 239 236 227 217 211 211 215 210 210 216 222
256 266 262 273 286 289 294 298 302 299 301 311 324 329 329 325 323 320 318 293 272 283 290 290 282 274 268 262 253 245 240 239 236 227 222 214 209 205 212 212 211 221 219
257 290 310 297 286 286 289 295 301 303 304 307 309 309 324 336 331 326 312 306 292 291 290 291 289 283 278 268 261 251 241 236 231 225 224 220 214 212 215 212 212 215 220
255 271 305 309 284 279 285 289 295 300 301 299 296 302 308 303 286 283 288 292 291 288 289 294 293 287 284 284 272 257 246 243 234 228 229 226 214 217 219 214 216 212 212
237 244 254 268 282 291 302 299 301 300 299 300 302 307 313 309 292 288 287 287 291 294 290 292 295 296 290 282 283 271 254 252 243 233 232 232 223 221 217 211 210 207 202
223 251 274 282 282 314 322 309 305 304 304 303 305 314 318 308 303 303 300 301 304 302 296 294 304 309 299 285 271 264 263 254 244 226 221 228 225 219 211 207 205 205 205
244 256 270 280 288 293 296 302 304 305 306 305 308 310 311 312 312 312 313 314 312 308 299 296 299 306 309 298 281 269 259 254 242 222 214 215 223 226 215 205 204 205 202
307 280 271 268 278 291 301 306 309 311 314 315 316 315 317 319 321 318 319 320 319 321 319 311 307 308 307 306 303 292 287 277 262 238 218 216 223 218 207 203 203 200 197
310 287 279 278 281 294 299 305 310 314 317 321 321 317 317 317 318 318 319 320 320 319 316 309 313 312 310 304 303 304 302 294 280 263 233 217 215 214 198 198 197 196 192
Height
1521 1522 1522 1522 1522 1522 1522 1522 1521 1521 1520 1520 1519 1519 1518 1517 1517 1516 1515 1514 1513 1512 1511 1511 1510 1510 1510 1509 1509 1509 1509 1509 1508 1508 1508 1509 1509 1509 1509 1509 1508 1508 1507
1519 1520 1520 1520 1520 1519 1519 1519 1518 1518 1518 1517 1517 1516 1515 1515 1514 1513 1512 1511 1510 1509 1508 1508 1507 1507 1506 1506 1506 1506 1506 1506 1505 1504 1505 1506 1506 1506 1506 1506 1506 1506 1506
1517 1517 1517 1517 1517 1516 1516 1516 1515 1515 1514 1514 1514 1513 1512 1511 1511 1510 1509 1508 1507 1506 1505 1504 1504 1503 1503 1503 1502 1502 1503 1503 1502 1502 1502 1503 1503 1504 1504 1503 1503 1503 1503
1515 1515 1515 1514 1514 1514 1513 1513 1512 1511 1511 1511 1510 1510 1509 1508 1507 1506 1505 1504 1503 1502 1502 1501 1500 1500 1500 1499 1499 1499 1499 1499 1499 1499 1499 1500 1500 1501 1501 1500 1500 1500 1500
1512 1512 1512 1512 1511 1511 1510 1509 1509 1508 1508 1507 1507 1506 1506 1505 1504 1503 1502 1501 1500 1499 1498 1498 1497 1497 1497 1496 1496 1495 1496 1496 1496 1496 1496 1497 1497 1497 1497 1498 1497 1497 1497
1510 1509 1509 1509 1508 1508 1507 1506 1506 1505 1505 1504 1503 1503 1502 1501 1500 1499 1498 1497 1496 1495 1494 1494 1493 1493 1493 1492 1492 1492 1492 1493 1492 1493 1493 1493 1493 1494 1494 1495 1494 1494 1494
1507 1507 1506 1506 1505 1505 1504 1503 1503 1502 1501 1500 1500 1499 1498 1497 1496 1495 1495 1494 1493 1492 1491 1490 1489 1488 1488 1488 1488 1488 1488 1489 1489 1489 1489 1489 1490 1490 1491 1491 1491 1490 1490
1505 1504 1503 1502 1502 1501 1501 1500 1499 1499 1498 1497 1496 1495 1494 1493 1492 1491 1490 1490 1488 1487 1487 1486 1485 1484 1484 1484 1484 1483 1484 1484 1485 1485 1485 1485 1486 1486 1487 1487 1487 1487 1487
1502 1501 1500 1499 1499 1498 1497 1497 1496 1495 1494 1493 1492 1491 1490 1489 1488 1487 1486 1485 1484 1483 1482 1482 1481 1480 1480 1480 1480 1479 1479 1480 1480 1481 1481 1481 1482 1482 1483 1483 1483 1483 1483
1499 1498 1498 1497 1496 1494 1494 1493 1492 1491 1490 1489 1488 1487 1486 1485 1484 1483 1482 1481 1479 1478 1478 1477 1477 1476 1476 1476 1475 1475 1474 1475 1476 1476 1476 1477 1477 1477 1478 1478 1479 1479 1479
1497 1496 1495 1494 1493 1491 1490 1489 1488 1487 1486 1485 1484 1483 1482 1481 1479 1478 1477 1476 1475 1474 1473 1472 1472 1472 1471 1471 1471 1471 1471 1471 1471 1471 1471 1471 1472 1472 1472 1473 1474 1474 1474
1494 1493 1492 1491 1490 1488 1487 1486 1484 1483 1482 1480 1479 1478 1477 1476 1475 1474 1473 1472 1471 1470 1468 1467 1467 1467 1467 1467 1467 1467 1467 1467 1467 1467 1466 1466 1467 1467 1468 1468 1469 1470 1470
1491 1490 1489 1488 1486 1485 1483 1482 1480 1479 1478 1477 1475 1474 1472 1472 1471 1470 1468 1467 1466 1465 1464 1463 1462 1462 1462 1462 1462 1462 1463 1463 1463 1462 1462 1462 1462 1463 1463 1464 1465 1466 1466
1488 1487 1486 1484 1483 1481 1480 1479 1477 1475 1474 1473 1471 1470 1468 1467 1466 1465 1464 1463 1462 1460 1459 1458 1458 1458 1458 1458 1458 1458 1458 1458 1458 1458 1458 1458 1458 1459 1459 1460 1460 1461 1462
1485 1483 1482 1481 1480 1478 1477 1475 1474 1473 1472 1470 1468 1467 1465 1463 1462 1461 1460 1459 1458 1457 1455 1455 1454 1454 1453 1453 1454 1454 1454 1454 1454 1454 1454 1454 1454 1454 1454 1455 1456 1457 1457
1482 1480 1479 1478 1476 1474 1473 1471 1470 1469 1468 1467 1465 1464 1462 1460 1459 1457 1456 1455 1454 1453 1452 1451 1450 1450 1450 1449 1449 1449 1450 1450 1450 1450 1451 1451 1451 1451 1451 1452 1453 1453 1454
1479 1478 1476 1475 1473 1471 1469 1468 1466 1465 1464 1463 1461 1460 1458 1457 1455 1454 1452 1451 1450 1449 1448 1447 1447 1447 1446 1446 1446 1445 1446 1446 1446 1446 1447 1447 1447 1448 1448 1449 1449 1450 1451
1476 1475 1473 1472 1470 1468 1467 1465 1463 1462 1460 1458 1457 1456 1455 1453 1451 1450 1449 1448 1446 1446 1445 1444 1443 1443 1443 1442 1442 1442 1442 1442 1442 1443 1443 1443 1444 1444 1445 1445 1446 1447 1447
1472 1471 1470 1469 1467 1466 1464 1463 1461 1459 1458 1456 1454 1453 1451 1450 1448 1447 1446 1444 1443 1442 1442 1441 1440 1440 1439 1439 1438 1438 1438 1438 1439 1439 1439 1439 1440 1440 1441 1442 1442 1443 1444
1469 1468 1467 1466 1464 1463 1461 1460 1458 1457 1455 1453 1452 1450 1449 1447 1445 1444 1443 1442 1441 1440 1439 1438 1437 1437 1436 1435 1435 1434 1434 1434 1435 1435 1435 1436 1436 1437 1437 1438 1439 1439 1440
1466 1465 1464 1462 1461 1460 1459 1457 1456 1454 1453 1451 1450 1449 1447 1445 1443 1442 1441 1440 1438 1437 1436 1435 1434 1433 1433 1432 1431 1431 1431 1430 1431 1431 1431 1432 1432 1433 1433 1434 1435 1435 1436
1462 1461 1460 1459 1459 1457 1456 1455 1453 1452 1450 1449 1447 1446 1445 1443 1441 1440 1438 1437 1436 1435 1434 1433 1431 1430 1429 1429 1428 1427 1427 1427 1427 1427 1427 1428 1428 1429 1430 1430 1431 1432 1433
1459 1459 1458 1457 1456 1455 1454 1452 1451 1449 1448 1447 1445 1443 1442 1440 1439 1437 1436 1434 1433 1432 1431 1430 1428 1427 1427 1426 1425 1424 1423 1423 1423 1424 1424 1424 1424 1425 1425 1426 1427 1428 1429
1457 1456 1455 1455 1454 1452 1451 1450 1448 1447 1446 1444 1443 1441 1440 1438 1436 1435 1434 1432 1431 1429 1428 1427 1426 1424 1424 1423 1422 1421 1421 1420 1420 1420 1420 1420 1421 1421 1422 1422 1423 1424 1425
1454 1454 1453 1452 1451 1450 1449 1447 1446 1445 1443 1442 1441 1439 1438 1436 1434 1433 1431 1430 1428 1427 1425 1424 1423 1422 1421 1420 1419 1419 1418 1418 1417 1417 1417 1417 1417 1418 1418 1419 1419 1421 1422
1452 1451 1451 1450 1449 1448 1446 1445 1444 1443 1441 1440 1438 1437 1435 1434 1432 1430 1429 1427 1426 1424 1423 1422 1420 1419 1418 1417 1417 1416 1415 1415 1414 1414 1414 1414 1414 1414 1415 1415 1416 1418 1419